Time,TemperatureF,DewpointF,PressureIn,WindDirection,WindDirectionDegrees,WindSpeedMPH,WindSpeedGustMPH,Humidity,HourlyPrecipIn,Conditions,Clouds,dailyrainin,SoftwareType,DateUTC
2013-01-27 00:11:00,40.7,39.0,29.65,North,355,4.0,-999.0,92,-99.99,,,0.00,weatherlink.com 1.10,2013-01-27 08:11:00,
2013-01-27 00:26:00,40.6,39.0,29.64,North,351,7.0,-999.0,93,-99.99,,,0.00,weatherlink.com 1.10,2013-01-27 08:26:00,
2013-01-27 00:41:00,40.7,39.0,29.64,WNW,287,1.0,-999.0,93,-99.99,,,0.02,weatherlink.com 1.10,2013-01-27 08:41:00,
2013-01-27 00:56:00,40.4,39.0,29.64,North,5,6.0,-999.0,94,-99.99,,,0.02,weatherlink.com 1.10,2013-01-27 08:56:00,
2013-01-27 01:11:00,40.0,39.0,29.64,North,355,5.0,-999.0,94,-99.99,,,0.02,weatherlink.com 1.10,2013-01-27 09:11:00,
2013-01-27 01:26:00,40.1,39.0,29.64,NNE,28,5.0,-999.0,94,-99.99,,,0.02,weatherlink.com 1.10,2013-01-27 09:26:00,
2013-01-27 01:41:00,40.2,39.0,29.65,NNW,341,7.0,-999.0,94,-99.99,,,0.02,weatherlink.com 1.10,2013-01-27 09:41:00,
2013-01-27 01:56:00,40.0,39.0,29.65,NNW,334,10.0,-999.0,94,-99.99,,,0.02,weatherlink.com 1.10,2013-01-27 09:56:00,
2013-01-27 02:11:00,40.0,39.0,29.65,NNW,337,14.0,-999.0,94,-99.99,,,0.02,weatherlink.com 1.10,2013-01-27 10:11:00,
2013-01-27 02:26:00,40.0,39.0,29.65,ENE,63,3.0,-999.0,94,-99.99,,,0.02,weatherlink.com 1.10,2013-01-27 10:26:00,
2013-01-27 02:41:00,39.9,38.0,29.65,NNW,336,12.0,-999.0,94,-99.99,,,0.04,weatherlink.com 1.10,2013-01-27 10:41:00,
2013-01-27 02:56:00,39.7,38.0,29.65,NNE,15,12.0,-999.0,94,-99.99,,,0.04,weatherlink.com 1.10,2013-01-27 10:56:00,
2013-01-27 03:11:00,39.8,39.0,29.65,NNE,32,10.0,-999.0,95,-99.99,,,0.05,weatherlink.com 1.10,2013-01-27 11:11:00,
2013-01-27 03:26:00,39.6,38.0,29.64,NW,323,5.0,-999.0,95,-99.99,,,0.07,weatherlink.com 1.10,2013-01-27 11:26:00,
2013-01-27 03:41:00,39.6,38.0,29.64,North,349,5.0,-999.0,95,-99.99,,,0.07,weatherlink.com 1.10,2013-01-27 11:41:00,
2013-01-27 03:56:00,39.5,38.0,29.64,NNW,336,11.0,-999.0,95,-99.99,,,0.10,weatherlink.com 1.10,2013-01-27 11:56:00,
2013-01-27 04:11:00,39.5,38.0,29.64,NNE,22,0.0,-999.0,95,-99.99,,,0.10,weatherlink.com 1.10,2013-01-27 12:11:00,
2013-01-27 04:26:00,39.5,38.0,29.64,North,360,4.0,-999.0,95,-99.99,,,0.11,weatherlink.com 1.10,2013-01-27 12:26:00,
2013-01-27 04:41:00,39.3,38.0,29.64,North,355,4.0,-999.0,95,-99.99,,,0.12,weatherlink.com 1.10,2013-01-27 12:41:00,
2013-01-27 04:56:00,39.1,38.0,29.64,North,355,5.0,-999.0,95,-99.99,,,0.12,weatherlink.com 1.10,2013-01-27 12:56:00,
2013-01-27 05:11:00,39.3,38.0,29.65,North,360,0.0,-999.0,95,-99.99,,,0.12,weatherlink.com 1.10,2013-01-27 13:11:00,
2013-01-27 05:26:00,39.1,38.0,29.65,NE,49,2.0,-999.0,95,-99.99,,,0.12,weatherlink.com 1.10,2013-01-27 13:26:00,
2013-01-27 05:41:00,38.8,38.0,29.65,North,5,3.0,-999.0,95,-99.99,,,0.12,weatherlink.com 1.10,2013-01-27 13:41:00,
2013-01-27 05:56:00,38.6,37.0,29.66,North,350,0.0,-999.0,95,-99.99,,,0.12,weatherlink.com 1.10,2013-01-27 13:56:00,
2013-01-27 06:11:00,38.9,38.0,29.66,North,360,4.0,-999.0,96,-99.99,,,0.12,weatherlink.com 1.10,2013-01-27 14:11:00,
2013-01-27 06:26:00,38.9,38.0,29.66,NNE,21,9.0,-999.0,95,-99.99,,,0.13,weatherlink.com 1.10,2013-01-27 14:26:00,
2013-01-27 06:41:00,38.9,38.0,29.67,North,360,1.0,-999.0,95,-99.99,,,0.13,weatherlink.com 1.10,2013-01-27 14:41:00,
2013-01-27 06:56:00,38.8,38.0,29.68,NNE,13,3.0,-999.0,95,-99.99,,,0.13,weatherlink.com 1.10,2013-01-27 14:56:00,
2013-01-27 07:11:00,38.6,37.0,29.68,ENE,63,9.0,-999.0,95,-99.99,,,0.13,weatherlink.com 1.10,2013-01-27 15:11:00,
2013-01-27 07:26:00,38.7,37.0,29.68,North,11,3.0,-999.0,95,-99.99,,,0.13,weatherlink.com 1.10,2013-01-27 15:26:00,
2013-01-27 07:41:00,38.7,37.0,29.69,North,360,7.0,-999.0,95,-99.99,,,0.13,weatherlink.com 1.10,2013-01-27 15:41:00,
2013-01-27 07:56:00,39.0,38.0,29.69,North,360,9.0,-999.0,95,-99.99,,,0.13,weatherlink.com 1.10,2013-01-27 15:56:00,
2013-01-27 08:11:00,39.0,38.0,29.70,North,5,5.0,-999.0,95,-99.99,,,0.13,weatherlink.com 1.10,2013-01-27 16:11:00,
2013-01-27 08:26:00,39.0,38.0,29.70,NNW,335,3.0,-999.0,94,-99.99,,,0.13,weatherlink.com 1.10,2013-01-27 16:26:00,
2013-01-27 08:41:00,39.2,38.0,29.70,NE,38,9.0,-999.0,94,-99.99,,,0.13,weatherlink.com 1.10,2013-01-27 16:41:00,
2013-01-27 08:56:00,39.8,38.0,29.71,North,349,9.0,-999.0,94,-99.99,,,0.14,weatherlink.com 1.10,2013-01-27 16:56:00,
2013-01-27 09:11:00,39.8,38.0,29.71,NNW,330,4.0,-999.0,94,-99.99,,,0.14,weatherlink.com 1.10,2013-01-27 17:11:00,
2013-01-27 09:26:00,40.6,39.0,29.71,North,5,0.0,-999.0,94,-99.99,,,0.14,weatherlink.com 1.10,2013-01-27 17:26:00,
2013-01-27 09:41:00,40.9,39.0,29.72,North,5,0.0,-999.0,94,-99.99,,,0.14,weatherlink.com 1.10,2013-01-27 17:41:00,
2013-01-27 09:56:00,41.1,39.0,29.72,North,360,7.0,-999.0,93,-99.99,,,0.14,weatherlink.com 1.10,2013-01-27 17:56:00,
2013-01-27 10:11:00,41.7,40.0,29.73,North,349,5.0,-999.0,92,-99.99,,,0.14,weatherlink.com 1.10,2013-01-27 18:11:00,
2013-01-27 10:26:00,42.0,40.0,29.73,North,10,5.0,-999.0,91,-99.99,,,0.14,weatherlink.com 1.10,2013-01-27 18:26:00,
2013-01-27 10:41:00,41.8,39.0,29.74,North,11,5.0,-999.0,88,-99.99,,,0.14,weatherlink.com 1.10,2013-01-27 18:41:00,
2013-01-27 10:56:00,42.0,39.0,29.73,NNE,32,6.0,-999.0,88,-99.99,,,0.14,weatherlink.com 1.10,2013-01-27 18:56:00,
2013-01-27 11:11:00,42.8,40.0,29.73,NE,36,9.0,-999.0,88,-99.99,,,0.14,weatherlink.com 1.10,2013-01-27 19:11:00,
2013-01-27 11:26:00,42.1,38.0,29.73,North,355,2.0,-999.0,85,-99.99,,,0.14,weatherlink.com 1.10,2013-01-27 19:26:00,
2013-01-27 11:41:00,43.3,40.0,29.73,NW,325,6.0,-999.0,87,-99.99,,,0.14,weatherlink.com 1.10,2013-01-27 19:41:00,
2013-01-27 11:56:00,43.7,40.0,29.72,SE,126,0.0,-999.0,85,-99.99,,,0.14,weatherlink.com 1.10,2013-01-27 19:56:00,
2013-01-27 12:11:00,45.0,40.0,29.72,West,265,0.0,-999.0,82,-99.99,,,0.14,weatherlink.com 1.10,2013-01-27 20:11:00,
2013-01-27 12:26:00,45.6,39.0,29.71,North,360,0.0,-999.0,79,-99.99,,,0.14,weatherlink.com 1.10,2013-01-27 20:26:00,
2013-01-27 12:41:00,45.5,38.0,29.71,NNE,25,4.0,-999.0,75,-99.99,,,0.14,weatherlink.com 1.10,2013-01-27 20:41:00,
2013-01-27 12:56:00,45.7,37.0,29.71,North,360,6.0,-999.0,73,-99.99,,,0.14,weatherlink.com 1.10,2013-01-27 20:56:00,
2013-01-27 13:11:00,45.7,39.0,29.70,North,360,4.0,-999.0,77,-99.99,,,0.14,weatherlink.com 1.10,2013-01-27 21:11:00,
2013-01-27 13:26:00,46.6,41.0,29.70,North,11,6.0,-999.0,80,-99.99,,,0.14,weatherlink.com 1.10,2013-01-27 21:26:00,
2013-01-27 13:41:00,46.5,40.0,29.70,North,350,3.0,-999.0,79,-99.99,,,0.14,weatherlink.com 1.10,2013-01-27 21:41:00,
2013-01-27 13:56:00,46.8,40.0,29.70,NNE,17,8.0,-999.0,78,-99.99,,,0.14,weatherlink.com 1.10,2013-01-27 21:56:00,
2013-01-27 14:11:00,46.7,41.0,29.70,SW,232,3.0,-999.0,79,-99.99,,,0.14,weatherlink.com 1.10,2013-01-27 22:11:00,
2013-01-27 14:26:00,46.8,41.0,29.69,NNW,347,2.0,-999.0,79,-99.99,,,0.14,weatherlink.com 1.10,2013-01-27 22:26:00,
2013-01-27 14:41:00,46.9,40.0,29.70,NNW,332,6.0,-999.0,77,-99.99,,,0.14,weatherlink.com 1.10,2013-01-27 22:41:00,
2013-01-27 14:56:00,46.4,40.0,29.69,NNE,19,3.0,-999.0,79,-99.99,,,0.14,weatherlink.com 1.10,2013-01-27 22:56:00,
2013-01-27 15:11:00,46.0,40.0,29.69,North,9,5.0,-999.0,80,-99.99,,,0.14,weatherlink.com 1.10,2013-01-27 23:11:00,
2013-01-27 15:26:00,44.6,40.0,29.69,North,355,0.0,-999.0,83,-99.99,,,0.14,weatherlink.com 1.10,2013-01-27 23:26:00,
2013-01-27 15:41:00,44.7,40.0,29.69,North,360,0.0,-999.0,82,-99.99,,,0.14,weatherlink.com 1.10,2013-01-27 23:41:00,
2013-01-27 15:56:00,44.2,39.0,29.69,NNE,12,3.0,-999.0,82,-99.99,,,0.14,weatherlink.com 1.10,2013-01-27 23:56:00,
2013-01-27 16:11:00,43.4,38.0,29.69,SSW,208,0.0,-999.0,82,-99.99,,,0.14,weatherlink.com 1.10,2013-01-28 00:11:00,
2013-01-27 16:26:00,43.1,39.0,29.69,North,355,0.0,-999.0,84,-99.99,,,0.14,weatherlink.com 1.10,2013-01-28 00:26:00,
2013-01-27 16:41:00,42.8,38.0,29.69,NE,34,5.0,-999.0,84,-99.99,,,0.14,weatherlink.com 1.10,2013-01-28 00:41:00,
2013-01-27 16:56:00,42.0,38.0,29.69,NNW,336,0.0,-999.0,86,-99.99,,,0.14,weatherlink.com 1.10,2013-01-28 00:56:00,
2013-01-27 17:11:00,41.1,38.0,29.69,NNW,340,0.0,-999.0,89,-99.99,,,0.00,weatherlink.com 1.10,2013-01-28 01:11:00,
2013-01-27 17:26:00,40.6,38.0,29.69,North,5,3.0,-999.0,90,-99.99,,,0.00,weatherlink.com 1.10,2013-01-28 01:26:00,
2013-01-27 17:41:00,40.4,38.0,29.70,North,360,5.0,-999.0,91,-99.99,,,0.00,weatherlink.com 1.10,2013-01-28 01:41:00,
2013-01-27 17:56:00,40.3,38.0,29.70,North,355,4.0,-999.0,91,-99.99,,,0.00,weatherlink.com 1.10,2013-01-28 01:56:00,
2013-01-27 18:11:00,40.3,38.0,29.71,WSW,253,0.0,-999.0,92,-99.99,,,0.00,weatherlink.com 1.10,2013-01-28 02:11:00,
2013-01-27 18:26:00,40.3,38.0,29.72,North,351,3.0,-999.0,92,-99.99,,,0.00,weatherlink.com 1.10,2013-01-28 02:26:00,
2013-01-27 18:41:00,40.3,38.0,29.72,NNE,14,3.0,-999.0,92,-99.99,,,0.00,weatherlink.com 1.10,2013-01-28 02:41:00,
2013-01-27 18:56:00,40.2,38.0,29.72,North,350,4.0,-999.0,92,-99.99,,,0.00,weatherlink.com 1.10,2013-01-28 02:56:00,
2013-01-27 19:11:00,40.2,38.0,29.71,NNW,337,7.0,-999.0,92,-99.99,,,0.00,weatherlink.com 1.10,2013-01-28 03:11:00,
2013-01-27 19:26:00,40.1,38.0,29.72,NE,34,17.0,-999.0,91,-99.99,,,0.00,weatherlink.com 1.10,2013-01-28 03:26:00,
2013-01-27 19:41:00,40.1,38.0,29.72,NNW,344,4.0,-999.0,91,-99.99,,,0.00,weatherlink.com 1.10,2013-01-28 03:41:00,
2013-01-27 19:56:00,40.1,38.0,29.73,North,5,5.0,-999.0,92,-99.99,,,0.00,weatherlink.com 1.10,2013-01-28 03:56:00,
2013-01-27 20:11:00,40.0,38.0,29.73,NNE,19,6.0,-999.0,92,-99.99,,,0.00,weatherlink.com 1.10,2013-01-28 04:11:00,
2013-01-27 20:26:00,39.9,38.0,29.73,North,355,1.0,-999.0,92,-99.99,,,0.00,weatherlink.com 1.10,2013-01-28 04:26:00,
2013-01-27 20:41:00,39.9,38.0,29.73,NNE,28,3.0,-999.0,93,-99.99,,,0.00,weatherlink.com 1.10,2013-01-28 04:41:00,
2013-01-27 20:56:00,40.0,38.0,29.73,NNW,344,11.0,-999.0,93,-99.99,,,0.00,weatherlink.com 1.10,2013-01-28 04:56:00,
2013-01-27 21:11:00,39.9,38.0,29.73,North,5,5.0,-999.0,93,-99.99,,,0.00,weatherlink.com 1.10,2013-01-28 05:11:00,
2013-01-27 21:26:00,39.9,38.0,29.73,North,355,4.0,-999.0,92,-99.99,,,0.00,weatherlink.com 1.10,2013-01-28 05:26:00,
2013-01-27 21:41:00,39.9,38.0,29.73,North,10,6.0,-999.0,92,-99.99,,,0.00,weatherlink.com 1.10,2013-01-28 05:41:00,
2013-01-27 21:56:00,40.0,38.0,29.72,North,360,9.0,-999.0,92,-99.99,,,0.00,weatherlink.com 1.10,2013-01-28 05:56:00,
2013-01-27 22:11:00,40.0,38.0,29.72,North,360,10.0,-999.0,93,-99.99,,,0.00,weatherlink.com 1.10,2013-01-28 06:11:00,
2013-01-27 22:25:00,40.0,38.0,29.72,North,355,7.0,-999.0,92,-99.99,,,0.00,weatherlink.com 1.10,2013-01-28 06:25:00,
2013-01-27 22:41:00,40.0,38.0,29.72,North,11,14.0,-999.0,93,-99.99,,,0.00,weatherlink.com 1.10,2013-01-28 06:41:00,
2013-01-27 22:56:00,39.8,38.0,29.73,North,5,7.0,-999.0,92,-99.99,,,0.00,weatherlink.com 1.10,2013-01-28 06:56:00,
2013-01-27 23:11:00,39.8,38.0,29.73,NNE,25,7.0,-999.0,93,-99.99,,,0.00,weatherlink.com 1.10,2013-01-28 07:11:00,
2013-01-27 23:26:00,39.8,38.0,29.73,NNE,17,7.0,-999.0,93,-99.99,,,0.00,weatherlink.com 1.10,2013-01-28 07:26:00,
2013-01-27 23:41:00,39.9,38.0,29.72,NW,326,10.0,-999.0,93,-99.99,,,0.00,weatherlink.com 1.10,2013-01-28 07:41:00,
2013-01-27 23:56:00,39.9,38.0,29.73,North,360,15.0,-999.0,93,-99.99,,,0.00,weatherlink.com 1.10,2013-01-28 07:56:00,